Regional Weather Roundup
Issued by NWS Bismarck, ND

Home | Current Version | Previous Version | Text Only | Print | Product List | Glossary On
Versions: 1 2 3 4 5 6 7 8 9 10 11 12 13 14 15 16 17 18 19 20 21 22 23 24 25 26 27 28 29 30 31 32 33 34 35 36 37 38 39 40 41 42 43 44 45 46 47 48 49 50
000
ASUS43 KBIS 241910
RWRBIS

NWR BROADCAST TEXT
NATIONAL WEATHER SERVICE BISMARCK ND
100 PM CST TUE JAN 24 2017

NOTE: "FAIR" INDICATES FEW OR NO CLOUDS BELOW 12,000 FEET WITH NO
SIGNIFICANT WEATHER AND/OR OBSTRUCTIONS TO VISIBILITY.


CITY           SKY/WX    TMP DP  RH WIND       PRES   REMARKS
WILLISTON      CLOUDY    20  14  77 NW12      29.91F WCI   8
MINOT          CLOUDY    23  16  74 NW16      29.86F WCI  10
MINOT AFB      NOT AVBL
BISMARCK       CLOUDY    26  19  74 NW12      29.88F WCI  16
DICKINSON      CLOUDY    21  16  81 NW12      29.84S WCI   9
GARRISON         N/A     23  18  81 NW17      29.84F WCI   9
HETTINGER ARPT CLOUDY    20  16  84 N10       29.85F WCI   9
JAMESTOWN      CLOUDY    24  19  81 NW10      29.83F WCI  14
CARRINGTON     CLOUDY    25  21  86 NW12      29.86F WCI  14
HAZEN          CLOUDY   N/A N/A N/A NW12      29.91R
MANDAN         CLOUDY    25  18  74 NW14      29.87F WCI  13
RUGBY            N/A     21  19  93 NW17      29.84F WCI   7
STANLEY        CLOUDY    19  19 100 NW12      29.87F WCI   7
TIOGA          CLOUDY    18  18 100 NW14      29.88F WCI   4
WATFORD CITY   CLOUDY    19  16  86 NW10      29.90F WCI   8
$$

CITY           SKY/WX    TMP DP  RH WIND       PRES   REMARKS
GRAND FORKS    CLOUDY    29  22  75 NW8       29.86F
GRAND FORKS AF CLOUDY    28  22  79 NW9       29.86S WCI  19
DEVILS LAKE    CLOUDY    23  20  88 NW12      29.84F WCI  12
FARGO          CLOUDY    29  22  75 N7        29.86F
CAVALIER       CLOUDY    28  23  80 NW6       29.85F
GRAFTON        CLOUDY    28  25  86 W7        29.88S
GWINNER        MOCLDY    30  27  86 N8        29.86S
ROLLA            N/A    N/A N/A N/A MISG        N/A
$$

CITY           SKY/WX    TMP DP  RH WIND       PRES   REMARKS
ABERDEEN       LGT SNOW  29  24  82 NE12      29.83F WCI  19
MOBRIDGE       LGT SNOW  24  18  77 N17       29.82S WCI  11
BUFFALO          N/A     21  16  81 N15       29.77F WCI   8
RAPID CITY     LGT SNOW  21  19  92 N21       29.78S VSB 3/4 WCI   5
GLASGOW        LGT SNOW  19  14  81 NW12      29.92F WCI   7
SIDNEY         CLOUDY    23  16  74 NW8       29.93S WCI  14
WOLF POINT     CLOUDY    23  18  81 W7        29.93F WCI  15
GLENDIVE       FLURRIES  20  16  84 NW7       29.91F WCI  11
MILES CITY     CLOUDY    21  15  78 W7        29.92S WCI  12
BAKER          CLOUDY    19  14  81 W12       29.88F WCI   7
$$

CITY           SKY/WX    TMP DP  RH WIND       PRES   REMARKS
BILLINGS       CLOUDY    21  18  88 CALM      29.88F
GREAT FALLS    FAIR      21  14  74 SW9       29.89S WCI  11
REGINA         FLURRIES  16  12  86 NW10      29.91S WCI   3
ESTEVAN        FLURRIES  16  12  86 W15       29.89F WCI   1
$$




USA.gov is the U.S. government's official web portal to all federal, state and local government web resources and services.